Stations météo

Publicité
Bergerac, France (7530): Température de l'air & dewpoint: 13.03.2019 06:00:00 - 19.03.2019 06:00:00 (CET)Bergerac, France (7530): Température de l'air 5cm: 13.03.2019 06:00:00 - 19.03.2019 06:00:00 (CET)Bergerac, France (7530): Température de l'air -20cm & Température de l'air -100cm: 13.03.2019 06:00:00 - 19.03.2019 06:00:00 (CET)Bergerac, France (7530): Vitesse du vent & gusts: 13.03.2019 06:00:00 - 19.03.2019 06:00:00 (CET)Bergerac, France (7530): Direction du vent: 13.03.2019 06:00:00 - 19.03.2019 06:00:00 (CET)Bergerac, France (7530): reduced air pressure: 13.03.2019 06:00:00 - 19.03.2019 06:00:00 (CET)Bergerac, France (7530): visibility: 13.03.2019 06:00:00 - 19.03.2019 06:00:00 (CET)Bergerac, France (7530): Ensoleillement: 13.03.2019 06:00:00 - 19.03.2019 06:00:00 (CET)Bergerac, France (7530): Quantités de précipitations: 13.03.2019 06:00:00 - 19.03.2019 06:00:00 (CET)
Date & Time tt [°C] td [°C] tt 5cm [°C] tt -20cm [°C] tt -100cm [°C] ff [km/h] ff [knt] fx [km/h] fx [knt] dd ppp [hPa] vv [km] sd [min] rr [mm]
19.03.2019 06:00:00 6,0 5,4 4,8 10,1 10,4 4 2 10 5 WSW 1027,0 40 0 0,0
19.03.2019 05:00:00 6,2 5,5 5,8 10,1 10,4 8 4 11 6 NW 1026,7 49 0 0,0
19.03.2019 04:00:00 6,4 5,8 5,7 10,1 10,4 7 4 10 5 WNW 1026,5 40 0 0,0
19.03.2019 03:00:00 6,3 5,6 5,7 10,2 10,4 6 3 8 5 W 1026,5 39 0 0,0
19.03.2019 02:00:00 6,5 5,6 5,9 10,2 10,4 5 3 11 6 WNW 1026,8 55 0 0,0
19.03.2019 01:00:00 6,7 5,5 6,1 10,2 10,4 3 1 15 8 NW 1027,0 12 0 1,0
19.03.2019 00:00:00 7,3 6,1 6,6 10,3 10,4 12 7 18 10 W 1027,2 10 0 0,6
18.03.2019 23:00:00 8,1 5,4 7,1 10,3 10,4 8 5 16 9 WNW 1027,0 40 0 0,0
18.03.2019 22:00:00 8,9 4,7 7,6 10,3 10,4 13 7 21 11 WNW 1027,0 48 0 0,0
18.03.2019 21:00:00 8,9 4,3 7,8 10,3 10,4 13 7 21 11 W 1026,8 48 0 0,0
18.03.2019 20:00:00 8,8 4,0 7,8 10,2 10,4 12 7 29 16 W 1026,5 57 0 0,0
18.03.2019 19:00:00 9,7 4,7 8,5 10,2 10,4 16 9 31 17 W 1026,2 54 0 0,0
18.03.2019 18:00:00 10,1 4,7 10,0 10,1 10,4 9 5 36 20 WSW 1025,9 60 0 0,0
18.03.2019 17:00:00 11,8 4,5 11,8 9,9 10,4 9 5 37 20 WNW 1025,7 58 0 0,0
18.03.2019 16:00:00 12,2 3,7 12,0 9,8 10,4 16 9 28 15 NW 1025,8 55 8 0,0
18.03.2019 15:00:00 13,1 3,2 13,7 9,6 10,4 16 9 27 15 W 1025,9 49 23 0,0
18.03.2019 14:00:00 12,7 4,4 12,6 9,5 10,4 16 9 32 18 W 1026,6 53 31 0,0
18.03.2019 13:00:00 11,9 4,1 13,6 9,4 10,4 16 9 35 19 WNW 1027,2 20 38 0,0
18.03.2019 12:00:00 10,5 4,8 10,4 9,4 10,4 17 9 28 15 W 1027,6 20 15 0,0
18.03.2019 11:00:00 10,2 5,4 11,8 9,4 10,4 14 8 21 11 W 1027,9 18 49 0,0
18.03.2019 10:00:00 7,5 6,1 10,4 9,5 10,4 5 3 10 6 NW 1028,0 20 52 0,0
18.03.2019 09:00:00 4,3 4,0 1,6 9,7 10,4 3 2 7 4 NE 1027,3 18 60 0,0
18.03.2019 08:00:00 0,3 0,0 -2,8 9,8 10,4 5 3 6 3 NE 1026,9 17 33 0,0
18.03.2019 07:00:00 -0,9 -1,3 -3,4 9,9 10,4 4 2 5 3 NE 1026,6 0,5 0 0,0
18.03.2019 06:00:00 -0,4 -0,8 -3,3 10,0 10,4 3 1 5 3 SE 1026,0 1,2 0 0,0
18.03.2019 05:00:00 0,6 0,2 -2,5 10,1 10,4 2 1 5 3 SW 1025,4 9 0 0,0
18.03.2019 04:00:00 1,0 0,4 -2,0 10,3 10,4 3 2 6 4 E 1025,1 13 0 0,0
18.03.2019 03:00:00 2,5 1,9 -1,5 10,4 10,4 5 3 8 4 WNW 1025,0 18 0 0,0
18.03.2019 02:00:00 2,1 0,9 -0,5 10,5 10,4 2 1 7 4 NE 1025,0 41 0 0,0
18.03.2019 01:00:00 4,3 2,8 0,2 10,5 10,4 6 3 29 15 W 1025,0 59 0 0,0
18.03.2019 00:00:00 5,7 4,0 1,9 10,6 10,3 12 6 22 12 W 1024,8 16 0 0,0
17.03.2019 23:00:00 5,4 3,1 3,2 10,7 10,4 13 7 18 10 W 1024,7 60 0 0,0
17.03.2019 22:00:00 5,8 3,5 2,3 10,8 10,4 9 5 16 9 W 1024,4 19 0 0,0
17.03.2019 21:00:00 5,7 2,7 2,8 10,8 10,4 10 5 19 10 W 1023,7 57 0 0,0
17.03.2019 20:00:00 7,1 2,4 5,1 10,8 10,3 15 8 45 24 WSW 1023,0 60 0 0,0
17.03.2019 19:00:00 9,8 2,4 8,1 10,8 10,3 23 13 37 20 W 1022,4 60 31 0,0
17.03.2019 18:00:00 11,4 1,6 12,4 10,8 10,3 30 16 54 29 WNW 1021,3 43 54 0,0
17.03.2019 17:00:00 13,0 2,2 13,0 10,7 10,3 27 14 45 24 WNW 1020,5 12 56 0,0
17.03.2019 16:00:00 11,3 5,8 7,4 10,6 10,3 21 12 66 35 W 1020,5 11 37 0,2
17.03.2019 15:00:00 11,9 3,1 10,8 10,5 10,3 37 20 53 29 WNW 1020,1 59 28 0,0
17.03.2019 14:00:00 11,6 3,4 10,7 10,5 10,3 25 13 41 22 WNW 1019,4 20 28 0,0
17.03.2019 13:00:00 12,6 7,1 11,9 10,4 10,3 22 12 38 20 WNW 1019,6 20 13 0,0
17.03.2019 12:00:00 10,6 8,2 9,9 10,4 10,3 16 9 51 28 WNW 1019,3 59 0 0,0
17.03.2019 11:00:00 10,3 8,4 9,1 10,4 10,3 18 10 52 28 WNW 1018,5 59 0 0,6
17.03.2019 10:00:00 11,0 9,7 10,7 10,5 10,3 22 12 41 22 WSW 1017,0 6 6 0,6
17.03.2019 09:00:00 10,9 9,2 9,3 10,5 10,3 22 12 36 19 SW 1016,2 18 0 0,0
17.03.2019 08:00:00 9,8 8,4 7,4 10,6 10,3 16 9 24 13 SW 1015,7 12 0 0,0
17.03.2019 07:00:00 8,5 7,6 6,1 10,7 10,3 6 3 14 8 SSW 1015,5 13 0 0,0
17.03.2019 06:00:00 7,9 7,1 3,9 10,8 10,3 6 3 18 10 SSW 1015,3 12 0 0,0
17.03.2019 05:00:00 8,2 7,6 4,8 10,9 10,3 7 4 11 6 SSW 1015,0 14 0 0,0
17.03.2019 04:00:00 7,0 6,4 2,2 11,0 10,3 6 4 11 6 WSW 1014,5 16 0 0,0
17.03.2019 03:00:00 5,7 5,1 1,5 11,1 10,3 9 5 11 6 WSW 1014,5 15 0 0,0
17.03.2019 02:00:00 4,7 4,4 0,2 11,3 10,3 11 6 21 11 W 1014,6 11 0 0,0
17.03.2019 01:00:00 3,9 3,3 0,3 11,4 10,3 3 1 12 6 WNW 1014,3 10 0 0,0
17.03.2019 00:00:00 5,0 4,3 1,7 11,5 10,3 9 5 12 6 NE 1014,2 19 0 0,0
16.03.2019 23:00:00 5,9 4,9 2,4 11,5 10,3 11 6 13 7 ENE 1014,5 28 0 0,0
16.03.2019 22:00:00 7,0 5,8 2,1 11,5 10,2 8 4 11 6 E 1014,7 34 0 0,0
16.03.2019 21:00:00 7,7 5,5 2,8 11,5 10,2 4 2 9 5 E 1014,8 29 0 0,0
16.03.2019 20:00:00 10,4 7,1 4,3 11,5 10,2 2 1 7 4 ESE 1014,8 60 0 0,0
16.03.2019 19:00:00 14,5 7,3 8,1 11,4 10,3 4 2 11 6 ESE 1014,8 60 43 0,0
16.03.2019 18:00:00 16,4 8,1 17,3 11,2 10,2 7 4 19 11 SE 1015,5 20 58 0,0
16.03.2019 17:00:00 17,2 7,0 20,9 11,1 10,2 9 5 18 10 S 1016,3 58 60 0,0
16.03.2019 16:00:00 16,9 7,5 22,0 10,9 10,2 12 7 22 12 SE 1017,2 52 60 0,0
16.03.2019 15:00:00 16,2 7,7 21,6 10,7 10,2 10 5 23 12 SE 1018,2 41 60 0,0
16.03.2019 14:00:00 15,2 7,7 21,6 10,6 10,2 11 6 24 13 SSE 1019,4 48 60 0,0
16.03.2019 13:00:00 14,7 7,0 20,9 10,5 10,2 10 5 38 21 SSE 1020,8 59 60 0,0
16.03.2019 12:00:00 12,9 6,7 14,8 10,5 10,2 12 6 25 14 SE 1021,9 59 48 0,0
16.03.2019 11:00:00 11,8 5,9 13,9 10,5 10,2 9 5 23 12 S 1022,8 59 4 0,0
16.03.2019 10:00:00 10,8 5,7 11,3 10,5 10,2 8 4 18 10 S 1023,3 56 0 0,0
16.03.2019 09:00:00 10,3 6,1 9,4 10,5 10,2 8 4 12 6 SSW 1023,6 60 0 0,0
16.03.2019 08:00:00 9,4 6,5 8,4 10,5 10,2 5 3 9 5 S 1023,9 60 0 0,0
16.03.2019 07:00:00 9,4 6,5 8,3 10,5 10,2 4 2 8 4 S 1024,0 60 0 0,0
16.03.2019 06:00:00 9,6 6,5 8,5 10,6 10,2 3 1 16 8 S 1024,6 60 0 0,0
16.03.2019 05:00:00 9,6 6,5 8,6 10,6 10,2 4 2 14 8 S 1025,0 60 0 0,0
16.03.2019 04:00:00 10,0 6,5 8,8 10,6 10,2 11 6 18 10 SW 1025,3 60 0 0,0
16.03.2019 03:00:00 9,6 8,0 8,8 10,7 10,2 4 2 17 9 WNW 1026,0 56 0 0,0
16.03.2019 02:00:00 10,0 7,9 9,0 10,7 10,1 8 5 13 7 W 1026,5 56 0 0,0
16.03.2019 01:00:00 9,9 8,3 9,1 10,7 10,2 4 2 9 5 WSW 1027,2 58 0 0,0
16.03.2019 00:00:00 9,9 8,5 9,2 10,7 10,2 6 4 16 9 WSW 1027,8 20 0 0,0
15.03.2019 23:00:00 10,0 8,4 9,3 10,7 10,2 9 5 16 9 SW 1027,9 60 0 0,0
15.03.2019 22:00:00 10,3 8,7 9,5 10,7 10,1 7 4 26 14 WSW 1027,9 60 0 0,0
15.03.2019 21:00:00 10,6 8,9 9,9 10,7 10,2 14 7 22 12 WSW 1027,9 60 0 0,0
15.03.2019 20:00:00 10,6 9,5 9,7 10,7 10,2 5 3 14 8 SW 1027,6 53 0 0,0
15.03.2019 19:00:00 10,7 9,6 10,0 10,6 10,1 10 5 38 20 W 1027,2 18 0 0,0
15.03.2019 18:00:00 12,7 8,0 12,3 10,6 10,1 16 9 27 15 W 1026,6 54 0 0,0
15.03.2019 17:00:00 13,1 8,0 12,7 10,5 10,1 21 12 32 18 W 1026,5 58 0 0,0
15.03.2019 16:00:00 12,3 8,9 12,2 10,4 10,1 23 12 36 19 W 1026,6 20 7 0,0
15.03.2019 15:00:00 12,9 10,1 - - - 22 12 42 23 W 1026,8 50 - 0,0
15.03.2019 14:00:00 13,2 10,4 13,4 10,2 10,2 28 15 43 23 W 1026,9 60 7 0,0
15.03.2019 13:00:00 12,5 11,2 12,2 10,1 10,1 26 14 42 23 W 1027,5 15 3 0,0
15.03.2019 12:00:00 12,8 12,3 11,7 10,1 10,1 19 11 32 17 W 1027,5 8 2 0,4
15.03.2019 11:00:00 11,7 11,1 11,5 10,1 10,1 18 10 32 17 W 1027,9 9 0 0,0
15.03.2019 10:00:00 11,4 10,5 10,8 10,1 10,1 21 12 35 19 W 1027,9 11 0 0,0
15.03.2019 09:00:00 11,0 10,2 10,3 10,1 10,1 20 11 32 18 W 1027,4 9 0 0,2
15.03.2019 08:00:00 10,6 9,8 9,9 10,1 10,1 21 12 36 19 WSW 1027,1 12 0 0,0
15.03.2019 07:00:00 10,4 9,6 9,9 10,1 10,1 18 10 29 16 WSW 1027,0 18 0 0,0
15.03.2019 06:00:00 10,4 9,6 9,9 10,1 10,1 18 10 37 20 W 1026,9 7 0 0,0
15.03.2019 05:00:00 10,5 9,4 10,0 10,1 10,1 20 11 37 20 W 1026,7 19 0 0,0
15.03.2019 04:00:00 10,5 9,4 9,9 10,1 10,1 22 12 39 21 W 1026,6 41 0 0,0
15.03.2019 03:00:00 10,6 9,2 10,0 10,1 10,1 24 13 45 25 W 1027,0 47 0 0,0
15.03.2019 02:00:00 10,5 9,1 9,9 10,1 10,1 25 13 42 23 W 1027,1 60 0 0,0
15.03.2019 01:00:00 10,3 9,1 9,7 10,1 10,1 25 14 38 20 W 1027,2 48 0 0,0
15.03.2019 00:00:00 10,2 8,6 9,6 10,1 10,1 18 10 34 18 WSW 1027,3 55 0 0,0
14.03.2019 23:00:00 10,0 8,6 9,2 10,1 10,1 18 10 32 17 WSW 1027,3 54 0 0,0
14.03.2019 22:00:00 9,8 9,0 9,1 10,1 10,2 20 11 40 22 W 1027,1 8 0 0,0
14.03.2019 21:00:00 9,6 8,8 9,0 10,1 10,1 19 10 38 21 W 1026,9 13 0 0,2
14.03.2019 20:00:00 10,5 7,6 10,0 10,1 10,1 26 14 43 23 WSW 1026,3 60 0 0,0
14.03.2019 19:00:00 10,7 7,2 10,1 10,0 10,1 28 15 42 23 W 1026,0 60 0 0,0
14.03.2019 18:00:00 10,9 7,8 9,9 9,9 10,1 27 15 51 28 W 1026,0 39 6 0,0
14.03.2019 17:00:00 11,5 8,5 9,6 9,9 10,1 27 14 62 33 W 1025,8 48 17 0,0
14.03.2019 16:00:00 11,6 7,3 10,9 9,8 10,1 34 19 58 31 W 1025,9 20 11 0,0
14.03.2019 15:00:00 13,3 8,6 13,0 9,7 10,1 36 19 52 28 W 1025,6 10 39 0,0
14.03.2019 14:00:00 12,1 9,5 10,0 9,6 10,1 31 17 51 27 W 1026,4 9 15 0,4
14.03.2019 13:00:00 11,3 8,2 9,4 9,5 10,1 27 14 50 27 W 1027,3 12 17 0,4
14.03.2019 12:00:00 11,1 6,8 12,0 9,5 10,1 33 18 51 27 W 1027,8 53 0 0,0
14.03.2019 11:00:00 10,5 7,2 11,0 9,5 10,1 27 15 40 22 W 1028,2 57 9 0,0
14.03.2019 10:00:00 9,6 7,4 7,8 9,5 10,1 20 11 29 16 WSW 1028,6 20 19 0,2
14.03.2019 09:00:00 8,0 6,6 5,6 9,6 10,1 18 10 25 13 W 1028,8 11 0 0,0
14.03.2019 08:00:00 6,1 5,5 1,9 9,7 10,2 8 5 14 8 WSW 1028,5 18 0 0,0
14.03.2019 07:00:00 6,4 5,5 4,0 9,7 10,2 5 3 16 9 NW 1028,3 15 0 0,0
14.03.2019 06:00:00 5,9 4,7 3,8 9,8 10,1 9 5 21 11 WSW 1028,2 19 0 0,0
14.03.2019 05:00:00 7,1 6,2 5,4 9,8 10,2 13 7 23 12 W 1028,4 15 0 0,0
14.03.2019 04:00:00 6,4 5,0 4,1 9,9 10,1 11 6 22 12 W 1028,5 19 0 0,0
14.03.2019 03:00:00 7,8 5,8 7,2 9,9 10,1 15 8 27 15 W 1028,9 20 0 0,0
14.03.2019 02:00:00 7,9 5,7 5,2 10,0 10,1 17 9 27 15 W 1028,8 19 0 0,0
14.03.2019 01:00:00 7,4 4,9 6,1 10,0 10,1 18 10 37 20 W 1028,7 40 0 0,0
14.03.2019 00:00:00 7,2 5,3 5,1 10,1 10,1 13 7 23 12 WSW 1029,0 19 0 0,0
13.03.2019 23:00:00 7,8 5,6 6,1 10,1 10,1 16 9 26 14 W 1028,7 18 0 0,0
13.03.2019 22:00:00 7,9 5,5 6,3 10,1 10,1 15 8 32 17 W 1028,1 20 0 0,0
13.03.2019 21:00:00 7,9 5,4 5,6 10,2 10,1 13 7 28 15 W 1027,5 19 0 0,2
13.03.2019 20:00:00 9,1 4,7 7,3 10,1 10,1 20 11 34 18 W 1026,8 42 0 0,0
13.03.2019 19:00:00 9,4 4,6 8,3 10,1 10,1 23 12 50 27 W 1025,9 46 24 0,0
13.03.2019 18:00:00 10,9 3,7 10,8 10,1 10,1 35 19 52 28 W 1025,2 19 48 0,0
13.03.2019 17:00:00 11,6 5,2 11,4 10,0 10,1 31 17 58 31 W 1024,8 20 41 0,0
13.03.2019 16:00:00 12,9 5,8 8,8 9,9 10,1 31 17 59 32 WNW 1024,3 31 45 0,0
13.03.2019 15:00:00 10,4 6,2 8,8 9,8 10,2 37 20 60 33 W 1024,4 11 40 0,2
13.03.2019 14:00:00 11,6 6,1 8,2 9,7 10,1 32 17 52 28 W 1024,1 3,3 35 0,6
13.03.2019 13:00:00 11,2 5,1 10,7 9,6 10,1 23 12 45 24 WNW 1024,7 58 23 0,0
13.03.2019 12:00:00 11,2 5,9 12,2 9,6 10,1 30 16 44 24 W 1025,1 52 35 0,0
13.03.2019 11:00:00 10,7 7,0 10,5 9,6 10,1 23 12 34 18 W 1025,2 60 44 0,0
13.03.2019 10:00:00 8,4 6,5 7,2 9,7 10,1 12 7 26 14 W 1025,2 21 15 0,2
13.03.2019 09:00:00 7,5 5,3 5,2 9,7 10,1 16 9 27 14 WSW 1025,0 46 23 0,0
13.03.2019 08:00:00 6,4 5,0 3,7 9,8 10,2 11 6 18 10 WSW 1024,7 41 7 0,0
13.03.2019 07:00:00 5,4 4,2 3,5 9,9 10,1 9 5 21 12 W 1024,8 41 0 0,0
13.03.2019 06:00:00 6,4 4,6 4,9 10,0 10,1 13 7 26 14 WSW 1024,4 42 0 0,0

tt = Température de l'air
td = dewpoint
tt 5cm = Température de l'air 5cm
tt -20cm = Température de l'air -20cm
tt -100cm = Température de l'air -100cm
ff = Vitesse du vent
fx = gusts
dd = Direction du vent
ppp = reduced air pressure
vv = visibility
sd = Ensoleillement
rr = Quantités de précipitations

stations d'obs. à proximité